Regional Weather Roundup
Issued by NWS

Home | Current Version | Previous Version | Text Only | Print | Product List | Glossary Off
Versions: 1 2 3 4 5 6 7 8 9 10 11 12 13 14 15 16 17 18 19 20 21 22 23 24 25 26 27 28 29 30 31 32 33 34 35 36 37 38 39 40 41 42 43 44 45 46 47 48 49 50

000
ASUS43 KMPX 311601
RWRMN
WEATHER ROUNDUP FOR MINNESOTA
NATIONAL WEATHER SERVICE TWIN CITIES/CHANHASSEN MN
1100 AM CDT FRI OCT 31 2014


NOTE: "FAIR" INDICATES FEW OR NO CLOUDS BELOW 12,000 FEET WITH NO
SIGNIFICANT WEATHER AND/OR OBSTRUCTIONS TO VISIBILITY. N/A MEANS
CURRENT SKY AND/OR WEATHER CONDITIONS ARE NOT AVAILABLE.

MNZ060>063-068>070-311700-
   Twin Cities Metro

CITY           SKY/WX    TMP DP  RH WIND       PRES   REMARKS
TWIN CITIES    SUNNY     33  17  51 N13G21    30.56R WCI  24
ST PAUL        SUNNY     33  18  53 N13G21    30.57R WCI  24
CRYSTAL        SUNNY     34  18  52 N10       30.55R WCI  26
BLAINE         SUNNY     34  19  55 MISG        N/A
LAKEVILLE      SUNNY     30  18  59 N10       30.53S WCI  21
EDEN PRAIRIE   SUNNY     33  18  53 N12       30.55R WCI  24
SOUTH ST PAUL  SUNNY     33  18  52 N12       30.55R WCI  25
LAKE ELMO      FAIR      32  19  59 N10G20    30.55R WCI  24
$$
MNZ001>005-007-008-013>017-022>024-027-028-311700-
   Northwest Minnesota

CITY           SKY/WX    TMP DP  RH WIND       PRES   REMARKS
BEMIDJI        SUNNY     28  19  67 CALM      30.58F
HALLOCK        SUNNY     28  21  74 S8        30.58F WCI  20
ROSEAU         SUNNY     28  23  80 SE3       30.57F
WARROAD        SUNNY     28  23  80 CALM      30.58F
THIEF RVR FALL SUNNY     28  21  74 SE8       30.58F WCI  20
CROOKSTON      SUNNY     27  21  80 S5        30.62S WCI  21
FOSSTON        SUNNY     30  27  86 CALM      30.58F
DETROIT LAKES  SUNNY     30  23  74 E3        30.59F
MOORHEAD       SUNNY     27  25  93 CALM      30.63S
PARK RAPIDS    SUNNY     29  20  69 VRB5      30.57F WCI  24
MAHNOMEN       FAIR      27  22  81 SE3       30.59F
$$
MNZ006-009>011-018-025>026-311700-
   North Central Minnesota

CITY           SKY/WX    TMP DP  RH WIND       PRES   REMARKS
BAUDETTE       CLOUDY    29  20  69 SW5       30.58F WCI  24
FLAG ISLAND    SUNNY     28  19  69 CALM      30.56F
INTL FALLS     SUNNY     30  20  66 N3        30.56F
WASKISH        SUNNY     30  19  64 CALM      30.59S
BIG FORK       SUNNY     30  19  64 CALM      30.58R
LONGVILLE      SUNNY     30  18  59 N6        30.57S WCI  24
GRAND RAPIDS   SUNNY     28  16  59 CALM      30.57R
CRANE LAKE     PTSUNNY   27  19  74 CALM      30.58S
ORR            MOSUNNY   28  18  64 CALM      30.53F
COOK           PTSUNNY   28  19  69 CALM      30.56S
WALKER         FAIR      29  18  64 CALM      30.58S
$$
MNZ012-019>021-037-311700-
   Northeast Minnesota

CITY           SKY/WX    TMP DP  RH WIND       PRES   REMARKS
DULUTH         MOSUNNY   31  18  58 N12       30.52S WCI  22
ELY            MOSUNNY   27  18  69 NE3       30.53F
HIBBING        MOSUNNY   30  18  60 N7        30.56S WCI  23
EVELETH        PTSUNNY   30  23  74 N6        30.55S WCI  24
DULUTH HARBOR  SUNNY     34  23  64 NE14      30.58R WCI  24
TWO HARBORS    SUNNY     36  23  60 N8        30.52S
SILVER BAY     MOSUNNY   34  19  55 N7        30.52S WCI  28
GRAND MARAIS     N/A     33  18  53 VRB5      30.55R WCI  29
G MARAIS ARPRT CLOUDY   N/A N/A N/A N12G17    30.48S
$$
MNZ029>031-032-039>041-046>048-054>057-064-311700-
   West Central Minnesota

CITY           SKY/WX    TMP DP  RH WIND       PRES   REMARKS
FERGUS FALLS   SUNNY     28  18  64 NE5       30.62F WCI  23
WHEATON        SUNNY     25  21  86 W3        30.64S
MORRIS         SUNNY     30  21  69 NE8       30.59S WCI  23
ALEXANDRIA     SUNNY     30  19  63 N8        30.59R WCI  22
ELBOW LAKE     FAIR      29  22  75 NE5       30.59F WCI  24
WADENA         SUNNY     27  19  74 N5        30.58F WCI  21
GLENWOOD       SUNNY     30  19  64 NE9       30.59R WCI  22
APPLETON       SUNNY     32  21  64 NE8       30.61S WCI  25
BENSON         SUNNY     28  23  80 E3        30.60F
ORTONVILLE     SUNNY     28  21  74 NW5       30.61S WCI  23
MADISON        SUNNY     32  25  74 N6        30.61S WCI  26
WILLMAR        FAIR      32  18  55 NE8       30.61R WCI  25
$$
MNZ033>034-036-042>043-049>051-058-059-311700-
   Central Minnesota

CITY           SKY/WX    TMP DP  RH WIND       PRES   REMARKS
ST CLOUD       SUNNY     34  19  54 NE7       30.58R WCI  28
SAUK CENTRE    FAIR      29  18  62 NE6       30.60R WCI  23
PAYNESVILLE    SUNNY     28  17  66 N9        30.59R WCI  19
AITKIN         SUNNY     34  18  51 N5        30.55S WCI  30
PINE RIVER     SUNNY     30  18  59 N8        30.60R WCI  23
BRAINERD       SUNNY     29  17  61 N3        30.58R
STAPLES        SUNNY     28  18  64 N6        30.59R WCI  22
LONG PRAIRIE   FAIR      28  19  69 N5        30.59R WCI  23
LITTLE FALLS   SUNNY     30  18  59 N5        30.58R WCI  25
LITCHFIELD     SUNNY     32  21  64 NE7       30.58R WCI  26
BUFFALO        SUNNY     32  17  54 N7        30.58S WCI  26
MAPLE LAKE     SUNNY     33  22  63 N7        30.58S WCI  27
$$
MNZ037-044-045-052-053-311700-
   East Central Minnesota

CITY           SKY/WX    TMP DP  RH WIND       PRES   REMARKS
PRINCETON      SUNNY     34  18  51 N10       30.57R WCI  26
MORA           SUNNY     32  18  55 N8        30.57R WCI  25
CAMBRIDGE      SUNNY     34  19  55 N9        30.55R WCI  26
RUSH CITY      SUNNY     32  19  57 NE10G18   30.56R WCI  24
MOOSE LAKE     SUNNY     32  19  59 N9        30.53S WCI  24
HINCKLEY       FAIR      32  19  59 NE9       30.55R WCI  24
CLOQUET        FAIR      30  18  59 N6        30.54R WCI  24
MCGREGOR       SUNNY     32  19  59 N8        30.56R WCI  25
$$
MNZ071>073-080-081-089-090-097-098-311700-
   Southwest Minnesota

CITY           SKY/WX    TMP DP  RH WIND       PRES   REMARKS
MONTEVIDEO     SUNNY     32  25  74 E6        30.61F WCI  26
GRANITE FALLS  SUNNY     30  21  69 N7        30.62F WCI  23
CANBY          SUNNY     28  24  83 CALM      30.62S
MARSHALL       SUNNY     30  19  64 N9        30.59S WCI  22
REDWOOD FALLS  SUNNY     32  20  61 NE8G18    30.60R WCI  25
OLIVIA         SUNNY     32  21  64 N9        30.58S WCI  24
PIPESTONE      SUNNY     28  19  69 NE12      30.56R WCI  18
WINDOM         SUNNY     30  19  64 N10       30.57R WCI  21
WORTHINGTON    SUNNY     28  19  69 NE14      30.57S WCI  17
JACKSON        SUNNY     32  19  59 VRB10     30.56S WCI  24
TRACY          SUNNY     30  22  71 N12       30.59S WCI  21
SLAYTON        SUNNY     29  20  68 N8        30.57S WCI  21
$$
MNZ065>067-074>077-082>085-091>093-311700-
   South Central Minnesota

CITY           SKY/WX    TMP DP  RH WIND       PRES   REMARKS
MANKATO        SUNNY     32  16  51 N8        30.56R WCI  25
NEW ULM        SUNNY     30  19  64 N9G16     30.57R WCI  22
ST JAMES       SUNNY     32  19  59 N8        30.58S WCI  25
FAIRMONT       SUNNY     30   7  37 N15G22    30.55S WCI  19
GLENCOE        SUNNY     33  20  61 N12G17    30.56S WCI  24
FARIBAULT      SUNNY     34  18  51 N10G18    30.53R WCI  26
OWATONNA       SUNNY     34  18  51 N14       30.52R WCI  24
WASECA         SUNNY     32  16  51 N10G17    30.55S WCI  24
ALBERT LEA     SUNNY     34  18  51 N14       30.51R WCI  24
$$
MNZ078>079-086>088-094>096-311700-
   Southeast Minnesota

CITY           SKY/WX    TMP DP  RH WIND       PRES   REMARKS
ROCHESTER      SUNNY     33  19  56 N23       30.48S WCI  21
RED WING       SUNNY     36  16  44 N12G18    30.51R
STANTON        FAIR      34  19  52 N17       30.52R WCI  24
DODGE CENTER   SUNNY     32  19  59 N17G24    30.49R WCI  21
WINONA         MOSUNNY   36  23  60 N13G23    30.49S
AUSTIN         SUNNY     32  19  59 N13G24    30.49R WCI  22
PRESTON        SUNNY     32  19  59 N15G25    30.45F WCI  21
$$
ABBREVIATIONS USED IN REMARKS
   TC - TEMPERATURES IN CELSIUS
  WCI - WIND CHILL INDEX
   HX - HEAT INDEX
  VSB - VISIBILITY
$$



USA.gov is the U.S. government's official web portal to all federal, state and local government web resources and services.